Temp
-7 -8 -7 -6 -5 -7 -6 -8 -7 -6 -7 -7 -7 -7 -7 -7 -7 -7 -8 -8 -8 -8 -8 -8 -8 -8 -8 -9 -9 -9 -9 -9 -9 -9 -9 -10 -10 -10 -10 -10 -10 -10 -10
-7 -8 -8 -8 -8 -9 -9 -7 -6 -6 -5 -6 -7 -7 -6 -7 -7 -7 -6 -7 -8 -8 -8 -8 -8 -8 -8 -9 -9 -10 -10 -10 -9 -10 -10 -10 -10 -10 -10 -10 -10 -10 -10
-7 -7 -8 -8 -9 -9 -8 -7 -6 -6 -6 -6 -6 -6 -6 -7 -7 -7 -7 -6 -7 -8 -9 -9 -9 -9 -9 -9 -9 -9 -10 -10 -10 -10 -10 -10 -10 -10 -10 -10 -10 -10 -9
-7 -7 -8 -6 -8 -8 -7 -8 -6 -6 -7 -6 -6 -6 -7 -7 -7 -8 -8 -9 -9 -9 -9 -9 -9 -9 -9 -9 -9 -10 -10 -10 -10 -10 -10 -10 -10 -10 -10 -10 -10 -9 -9
-7 -8 -8 -7 -7 -8 -8 -8 -7 -6 -6 -6 -6 -7 -7 -7 -7 -7 -9 -8 -9 -8 -7 -9 -9 -10 -10 -10 -10 -10 -10 -10 -10 -11 -10 -10 -10 -10 -10 -10 -10 -10 -9
-7 -7 -8 -7 -7 -8 -6 -6 -7 -7 -7 -7 -7 -7 -7 -7 -7 -7 -7 -8 -8 -9 -9 -9 -10 -10 -9 -10 -10 -9 -10 -12 -11 -11 -11 -11 -11 -10 -10 -10 -10 -10 -10
-7 -8 -9 -8 -7 -7 -7 -7 -6 -7 -7 -7 -7 -7 -6 -7 -6 -7 -6 -8 -8 -9 -10 -9 -9 -9 -10 -11 -11 -12 -13 -12 -13 -12 -11 -11 -11 -11 -11 -11 -10 -10 -10
-7 -8 -9 -8 -7 -6 -7 -7 -7 -7 -7 -7 -7 -7 -7 -7 -6 -7 -8 -9 -9 -9 -9 -9 -9 -10 -10 -11 -13 -12 -12 -12 -12 -12 -12 -12 -12 -12 -11 -11 -11 -11 -11
-8 -8 -8 -8 -8 -8 -7 -7 -7 -7 -7 -7 -7 -7 -7 -7 -8 -8 -8 -8 -8 -8 -10 -9 -10 -11 -12 -12 -13 -13 -12 -13 -13 -13 -13 -13 -13 -13 -12 -12 -12 -12 -12
-8 -8 -8 -8 -8 -8 -7 -7 -7 -7 -7 -7 -7 -7 -7 -7 -7 -8 -8 -8 -8 -9 -9 -10 -11 -12 -12 -12 -13 -13 -12 -13 -13 -13 -14 -14 -14 -14 -14 -13 -13 -13 -12
-7 -7 -8 -8 -8 -8 -7 -7 -7 -7 -6 -7 -7 -7 -7 -7 -8 -8 -8 -8 -8 -9 -9 -12 -12 -12 -12 -12 -12 -13 -13 -13 -13 -14 -14 -14 -14 -15 -15 -14 -14 -14 -13
-7 -7 -8 -8 -8 -7 -6 -6 -6 -6 -6 -6 -7 -7 -7 -7 -7 -8 -8 -8 -9 -9 -11 -12 -12 -12 -12 -12 -12 -13 -13 -14 -14 -14 -15 -15 -15 -15 -15 -15 -14 -14 -14
-7 -8 -8 -8 -7 -7 -7 -6 -6 -6 -7 -7 -7 -7 -7 -7 -8 -8 -8 -8 -8 -9 -12 -12 -12 -12 -12 -12 -12 -13 -13 -14 -14 -14 -14 -15 -15 -15 -15 -15 -15 -15 -14
-7 -7 -8 -8 -8 -7 -7 -7 -7 -7 -7 -7 -7 -7 -7 -7 -8 -8 -8 -8 -9 -10 -12 -12 -11 -12 -12 -12 -12 -12 -13 -13 -13 -13 -14 -15 -15 -15 -15 -15 -15 -15 -14
-7 -8 -8 -8 -8 -8 -7 -7 -7 -7 -7 -7 -7 -7 -7 -7 -8 -8 -8 -8 -8 -10 -12 -12 -12 -12 -12 -12 -12 -13 -12 -12 -12 -12 -13 -13 -14 -15 -15 -15 -15 -14 -14
-7 -8 -8 -8 -8 -8 -7 -7 -7 -7 -7 -7 -7 -7 -7 -7 -8 -8 -8 -8 -9 -10 -12 -12 -12 -12 -12 -12 -12 -12 -12 -12 -11 -12 -12 -12 -12 -13 -14 -14 -14 -14 -14
-7 -8 -8 -8 -8 -8 -8 -7 -7 -7 -7 -6 -7 -7 -6 -7 -8 -8 -8 -8 -9 -10 -12 -12 -12 -12 -11 -11 -11 -11 -12 -12 -12 -12 -12 -12 -12 -12 -12 -13 -13 -13 -13
-6 -7 -8 -8 -9 -8 -8 -8 -7 -7 -7 -6 -7 -6 -7 -7 -8 -8 -8 -8 -9 -10 -11 -12 -12 -11 -11 -11 -11 -11 -12 -12 -12 -12 -12 -12 -12 -12 -12 -13 -13 -13 -13
-6 -8 -8 -8 -8 -8 -8 -8 -7 -7 -6 -6 -6 -6 -6 -7 -8 -8 -8 -8 -9 -10 -10 -11 -12 -11 -11 -11 -11 -12 -11 -12 -12 -12 -11 -12 -12 -12 -12 -12 -12 -13 -13
-6 -7 -8 -8 -8 -8 -8 -8 -8 -7 -6 -6 -6 -6 -6 -7 -7 -8 -8 -8 -8 -9 -10 -11 -11 -11 -11 -12 -12 -11 -11 -11 -11 -11 -11 -12 -12 -12 -12 -12 -12 -12 -12
-6 -7 -8 -8 -8 -8 -8 -8 -8 -7 -7 -7 -6 -6 -6 -7 -7 -7 -7 -8 -8 -9 -11 -11 -11 -12 -12 -12 -12 -11 -11 -11 -12 -12 -12 -12 -12 -12 -12 -12 -12 -12 -12
-6 -7 -8 -8 -8 -8 -8 -8 -8 -8 -7 -7 -7 -6 -6 -6 -7 -7 -7 -8 -8 -9 -10 -11 -11 -11 -12 -12 -11 -11 -11 -11 -11 -12 -12 -13 -13 -12 -12 -12 -12 -12 -12
-7 -7 -8 -8 -8 -8 -8 -8 -8 -8 -7 -7 -7 -6 -6 -6 -7 -7 -7 -7 -8 -8 -9 -10 -11 -11 -11 -11 -11 -11 -11 -11 -11 -11 -12 -13 -12 -13 -12 -12 -13 -13 -12
-7 -7 -8 -8 -8 -8 -8 -8 -8 -8 -8 -7 -7 -7 -6 -6 -7 -7 -7 -7 -8 -8 -8 -9 -10 -11 -11 -11 -11 -12 -11 -12 -12 -12 -13 -13 -13 -13 -13 -14 -14 -13 -13
-7 -7 -8 -8 -8 -8 -8 -8 -8 -8 -8 -8 -7 -7 -7 -7 -7 -6 -7 -7 -7 -8 -8 -8 -9 -10 -11 -12 -11 -12 -12 -12 -12 -12 -12 -13 -13 -13 -13 -14 -14 -13 -13
-7 -8 -8 -8 -8 -8 -7 -7 -8 -8 -8 -8 -8 -7 -7 -7 -7 -7 -7 -8 -8 -7 -8 -8 -8 -9 -10 -12 -12 -12 -12 -12 -12 -13 -12 -12 -13 -13 -14 -13 -13 -13 -13
Height
5919 5915 5913 5907 5902 5908 5902 5897 5898 5900 5895 5895 5900 5898 5896 5895 5893 5890 5889 5886 5883 5882 5881 5879 5876 5873 5871 5869 5867 5865 5863 5861 5860 5859 5858 5857 5857 5858 5859 5859 5860 5862 5863
5919 5917 5916 5914 5910 5905 5904 5899 5900 5904 5908 5903 5901 5900 5898 5894 5892 5890 5888 5886 5883 5879 5877 5877 5874 5871 5868 5864 5862 5860 5859 5855 5853 5853 5852 5852 5851 5852 5852 5853 5854 5856 5858
5923 5920 5919 5919 5917 5913 5909 5905 5902 5906 5907 5905 5905 5901 5898 5896 5892 5890 5886 5883 5880 5878 5874 5870 5868 5867 5864 5861 5858 5855 5851 5848 5846 5845 5845 5845 5844 5844 5845 5846 5847 5849 5851
5925 5925 5923 5921 5922 5919 5915 5907 5901 5903 5907 5908 5906 5903 5899 5897 5895 5892 5885 5877 5870 5869 5870 5867 5864 5860 5857 5854 5851 5847 5843 5840 5838 5837 5836 5835 5836 5836 5837 5839 5840 5842 5844
5928 5927 5927 5926 5923 5918 5914 5910 5909 5911 5912 5912 5909 5904 5900 5896 5893 5891 5877 5844 5861 5866 5866 5863 5858 5853 5851 5848 5843 5836 5828 5829 5831 5829 5826 5826 5826 5826 5828 5830 5831 5833 5836
5931 5931 5930 5928 5923 5920 5918 5914 5912 5912 5912 5911 5907 5901 5896 5890 5886 5871 5871 5867 5862 5863 5862 5858 5849 5845 5844 5839 5835 5830 5823 5824 5824 5821 5819 5818 5817 5817 5818 5820 5822 5824 5827
5933 5933 5932 5931 5927 5928 5925 5920 5917 5910 5908 5910 5907 5902 5895 5889 5883 5881 5878 5870 5864 5862 5857 5848 5842 5838 5834 5831 5827 5822 5816 5811 5812 5811 5808 5806 5806 5807 5808 5810 5812 5815 5818
5936 5936 5934 5933 5928 5926 5927 5922 5917 5912 5910 5910 5908 5905 5900 5892 5881 5879 5870 5867 5862 5856 5850 5844 5838 5831 5823 5819 5816 5811 5807 5804 5800 5798 5796 5795 5797 5797 5797 5799 5802 5805 5809
5937 5937 5935 5932 5931 5926 5922 5920 5915 5912 5912 5912 5909 5903 5900 5894 5887 5876 5872 5865 5855 5847 5842 5835 5816 5818 5812 5808 5804 5797 5794 5792 5788 5786 5784 5783 5783 5785 5787 5789 5791 5794 5799
5939 5938 5937 5934 5929 5925 5922 5920 5918 5917 5915 5913 5908 5901 5894 5888 5883 5879 5867 5861 5853 5846 5835 5825 5816 5810 5804 5799 5794 5788 5784 5780 5777 5775 5772 5772 5772 5774 5775 5777 5780 5784 5789
5940 5939 5938 5936 5934 5931 5928 5925 5921 5918 5916 5913 5906 5899 5892 5884 5877 5872 5867 5859 5849 5839 5827 5814 5810 5800 5797 5791 5787 5782 5776 5771 5766 5764 5761 5760 5760 5761 5764 5767 5769 5773 5778
5940 5939 5938 5937 5935 5933 5930 5927 5923 5920 5916 5911 5904 5899 5892 5884 5878 5872 5864 5855 5844 5831 5817 5811 5805 5796 5792 5788 5781 5776 5769 5762 5756 5754 5751 5749 5749 5750 5752 5756 5759 5763 5769
5942 5941 5939 5938 5936 5934 5931 5927 5923 5919 5915 5911 5906 5899 5891 5883 5878 5871 5863 5854 5842 5828 5814 5808 5801 5794 5786 5779 5773 5769 5762 5755 5749 5745 5742 5739 5739 5740 5742 5744 5748 5754 5759
5942 5942 5941 5939 5936 5934 5931 5928 5925 5921 5916 5910 5904 5897 5889 5883 5876 5869 5861 5851 5838 5824 5814 5806 5798 5789 5781 5775 5766 5760 5756 5749 5744 5739 5736 5732 5730 5731 5733 5735 5739 5744 5749
5943 5942 5942 5941 5938 5936 5933 5929 5925 5922 5917 5910 5904 5897 5890 5883 5875 5867 5858 5849 5836 5820 5811 5803 5793 5785 5777 5771 5764 5756 5749 5745 5740 5736 5731 5727 5724 5723 5724 5726 5731 5736 5742
5943 5943 5944 5943 5940 5937 5934 5930 5926 5921 5917 5910 5905 5898 5891 5882 5875 5867 5857 5846 5833 5820 5810 5800 5791 5784 5778 5769 5762 5756 5749 5744 5739 5733 5729 5725 5722 5720 5720 5722 5726 5730 5734
5943 5944 5944 5943 5941 5939 5936 5931 5927 5923 5919 5913 5906 5899 5891 5883 5875 5866 5856 5845 5833 5821 5809 5800 5792 5786 5777 5768 5761 5756 5750 5744 5739 5735 5729 5724 5722 5721 5720 5721 5723 5725 5728
5944 5944 5945 5944 5943 5941 5937 5933 5929 5925 5920 5914 5907 5901 5893 5884 5876 5867 5857 5846 5834 5823 5812 5802 5794 5787 5778 5770 5762 5757 5753 5747 5742 5736 5731 5726 5722 5720 5719 5719 5720 5721 5723
5944 5945 5946 5945 5944 5942 5939 5934 5930 5926 5921 5915 5909 5902 5894 5884 5876 5867 5858 5848 5837 5827 5816 5805 5796 5788 5779 5771 5765 5760 5754 5749 5744 5738 5733 5727 5723 5720 5718 5716 5716 5716 5717
5944 5945 5946 5946 5945 5943 5940 5936 5932 5927 5921 5916 5910 5903 5895 5886 5877 5868 5859 5851 5840 5830 5819 5808 5799 5790 5781 5773 5766 5761 5755 5750 5744 5739 5733 5727 5723 5719 5716 5714 5713 5713 5713
5944 5945 5946 5947 5946 5944 5941 5937 5933 5927 5922 5917 5911 5905 5897 5888 5880 5872 5862 5853 5842 5833 5823 5814 5804 5794 5784 5776 5769 5763 5755 5750 5743 5737 5730 5724 5719 5715 5711 5709 5708 5708 5709
5943 5945 5946 5947 5947 5945 5942 5938 5933 5928 5923 5918 5913 5906 5899 5891 5882 5875 5865 5856 5846 5837 5827 5820 5811 5801 5791 5781 5771 5764 5757 5750 5742 5734 5726 5721 5716 5709 5705 5702 5700 5701 5703
5942 5944 5945 5946 5946 5945 5943 5939 5935 5930 5925 5919 5914 5908 5900 5893 5886 5878 5869 5861 5851 5841 5832 5824 5816 5806 5795 5785 5776 5767 5760 5750 5743 5734 5727 5719 5713 5706 5700 5695 5692 5694 5696
5941 5943 5944 5945 5945 5944 5942 5940 5936 5932 5927 5921 5916 5910 5903 5896 5889 5880 5873 5866 5856 5848 5838 5828 5821 5811 5800 5790 5780 5771 5762 5753 5745 5736 5727 5720 5715 5708 5701 5696 5694 5693 5693
5939 5941 5943 5944 5944 5943 5942 5940 5937 5933 5929 5923 5918 5911 5905 5899 5892 5884 5876 5869 5860 5852 5842 5833 5824 5814 5804 5796 5786 5774 5767 5757 5748 5740 5732 5725 5718 5712 5706 5702 5697 5694 5693
5937 5940 5941 5943 5943 5943 5941 5940 5937 5934 5930 5925 5920 5914 5907 5901 5895 5888 5880 5873 5866 5858 5848 5839 5829 5820 5810 5801 5791 5782 5773 5763 5753 5745 5738 5730 5722 5716 5711 5708 5703 5699 5697
Wind_Speed
10 11 8 14 14 15 15 15 9 7 13 18 11 12 12 10 11 13 12 16 17 16 17 18 19 20 19 18 19 20 22 22 23 22 22 22 21 21 22 22 21 21 20
11 10 10 14 23 30 21 21 5 5 7 10 9 12 11 11 11 14 15 14 16 18 20 22 23 24 23 23 23 23 24 25 26 26 24 24 25 26 26 25 25 25 24
13 12 16 21 24 30 24 17 8 6 2 8 11 9 10 12 10 12 16 14 16 17 19 21 23 24 26 25 26 27 27 28 28 29 28 29 28 28 28 28 27 27 27
15 16 22 24 29 28 27 22 11 8 7 9 7 10 12 16 17 21 19 20 18 13 15 20 23 24 25 27 28 30 30 29 30 30 30 32 32 33 33 32 32 32 30
17 18 25 24 25 21 21 25 26 19 11 8 10 14 17 21 34 24 27 25 34 25 23 29 24 24 25 25 28 30 30 29 30 33 34 34 36 37 37 37 36 34 33
17 19 23 25 28 20 18 19 21 17 15 15 15 21 25 30 32 25 30 33 37 28 35 31 29 28 29 30 24 31 35 32 34 30 33 36 37 39 40 40 40 37 36
13 16 20 22 21 25 19 20 17 19 19 18 21 22 25 26 29 27 30 34 36 30 34 33 34 35 35 31 31 34 36 27 29 32 32 34 38 39 41 42 43 42 39
12 16 18 19 21 23 31 22 22 21 21 19 18 19 21 29 36 32 36 35 34 35 32 31 31 33 36 36 34 36 36 32 34 30 30 30 33 39 41 43 45 45 43
11 13 16 19 22 25 28 27 27 27 22 22 22 21 24 28 27 34 32 35 39 42 37 44 30 39 37 38 33 36 36 34 34 32 31 30 30 30 35 41 43 45 44
9 11 16 18 23 27 29 28 27 24 25 24 25 29 34 35 33 32 38 38 40 43 45 43 42 41 37 34 33 34 32 30 31 31 31 31 30 29 30 34 39 41 44
6 10 14 17 20 22 24 25 26 28 28 25 29 31 37 38 38 38 36 40 45 47 45 43 40 40 32 30 26 29 35 37 35 32 31 29 29 30 28 29 34 36 37
5 9 12 15 18 20 23 24 25 27 27 28 32 34 37 38 39 38 40 43 47 48 46 42 35 33 29 29 33 31 31 32 31 29 30 30 28 28 28 29 30 33 33
4 6 10 13 16 19 21 23 26 27 28 28 29 37 40 40 40 39 43 45 49 46 45 40 30 32 33 32 28 26 26 25 25 25 23 24 26 26 27 28 30 32 36
7 7 10 14 17 19 22 23 25 26 28 30 33 39 41 40 40 43 46 46 49 46 42 32 34 34 29 27 35 32 24 25 23 20 17 17 18 21 23 26 29 32 34
7 8 11 15 18 20 21 23 24 26 30 31 35 39 42 41 40 44 47 50 53 45 39 36 39 30 30 31 31 31 29 25 23 19 15 12 11 15 17 19 24 26 28
6 8 9 12 16 19 22 23 24 28 32 32 33 38 42 41 40 45 48 54 51 44 38 40 34 28 30 31 29 25 22 21 22 24 19 11 8 7 9 14 20 21 23
5 8 11 14 16 18 22 24 24 27 30 31 33 38 41 40 41 46 50 57 52 44 44 44 29 28 31 29 28 22 17 20 21 21 20 16 9 5 7 10 16 19 21
4 9 11 14 17 20 22 23 23 26 29 31 33 37 39 39 42 45 50 56 57 49 45 43 28 34 31 32 28 25 22 23 23 23 22 18 15 8 5 7 12 17 22
4 11 13 15 14 20 22 25 24 24 27 31 33 36 40 41 43 46 51 55 56 48 45 40 35 39 35 31 27 27 28 28 26 25 25 22 18 12 7 5 5 8 14
7 11 15 16 18 19 22 24 25 24 27 31 33 36 39 41 42 46 50 54 58 55 50 43 39 38 37 33 29 26 29 29 30 29 27 24 21 18 15 12 10 10 11
7 10 15 15 17 19 20 23 27 26 26 30 33 36 38 41 41 44 48 53 57 55 49 44 45 45 43 35 29 26 28 31 32 35 35 27 22 20 19 19 15 12 11
8 13 12 11 13 14 18 23 26 29 29 29 32 35 38 41 42 43 46 51 53 55 50 45 43 43 47 46 34 30 31 33 34 34 32 27 29 28 23 17 15 14 11
12 11 10 9 10 14 15 20 22 27 31 31 31 34 37 39 42 42 44 48 50 54 55 49 45 42 44 46 41 37 38 37 35 33 30 28 27 26 17 14 10 7 8
14 12 10 7 7 10 15 17 20 26 31 35 33 33 35 38 41 43 43 44 49 51 55 55 54 48 44 45 47 41 43 35 35 35 34 32 25 30 22 15 10 3 1
17 14 10 4 6 8 12 14 17 22 28 32 35 34 34 38 40 42 43 44 47 50 53 56 59 56 46 44 44 49 47 41 40 36 34 33 31 24 21 16 15 4 5
19 16 9 2 3 8 10 11 13 19 24 28 33 38 35 35 39 41 43 42 44 47 50 52 58 57 54 45 44 46 48 45 48 39 36 37 27 18 17 22 15 17 6
Wind_Direction
62 53 27 25 5 9 18 357 41 42 4 17 28 15 4 1 349 339 341 329 326 327 316 310 303 297 296 296 294 291 289 287 285 278 273 270 264 254 256 256 254 253 255
59 56 27 7 11 18 353 321 344 306 19 22 38 24 19 4 345 332 336 329 322 317 315 311 304 300 295 293 291 288 287 286 286 281 272 264 262 260 256 253 253 253 251
58 48 40 34 38 45 28 8 302 224 43 4 5 6 354 347 338 335 326 310 314 312 314 308 305 301 296 290 286 286 287 284 282 280 273 266 262 265 258 250 250 250 249
67 59 49 55 51 47 37 36 49 131 85 37 20 1 353 346 341 342 334 317 307 299 315 315 307 301 295 288 287 283 277 275 275 274 271 267 263 261 256 247 252 250 251
68 56 50 53 45 40 58 66 76 82 70 50 17 0 351 344 343 2 333 291 340 344 342 327 323 313 305 295 294 286 270 270 274 275 273 267 261 260 258 255 252 248 247
68 53 50 48 41 49 55 78 77 64 39 21 5 353 354 347 348 338 356 339 339 355 319 318 329 324 313 309 305 283 292 294 285 275 273 269 265 257 254 255 254 251 248
70 58 49 45 44 55 50 61 55 44 26 9 7 0 350 347 346 350 335 338 334 338 329 329 326 317 310 305 296 291 291 300 283 279 269 263 261 259 255 250 250 250 248
79 57 44 40 29 30 54 43 38 35 30 14 10 7 358 353 345 348 342 342 336 336 337 329 313 303 302 303 310 307 305 302 297 294 284 276 264 259 256 254 251 248 245
68 54 40 28 29 26 29 33 29 23 15 9 7 3 3 360 354 343 346 344 343 344 342 331 317 314 319 320 316 308 303 300 297 291 284 274 265 254 252 251 249 245 242
60 47 39 29 23 22 21 23 21 17 13 12 5 7 3 359 359 359 350 349 345 341 337 324 312 326 324 321 317 309 310 307 301 294 287 278 269 260 249 243 243 242 240
60 36 32 29 26 20 19 19 16 14 9 6 8 9 4 358 356 357 354 350 343 342 332 320 335 328 333 329 322 316 311 308 303 297 287 278 271 263 253 244 241 237 235
44 33 21 23 18 17 16 15 11 12 9 7 10 6 2 359 358 358 356 350 348 342 323 336 335 335 334 328 320 318 313 308 304 296 290 277 271 264 256 243 234 233 227
31 19 18 17 15 16 14 10 10 8 8 9 8 7 3 359 358 0 357 354 353 342 330 344 344 336 334 331 337 338 328 317 311 308 302 289 269 262 254 247 234 224 222
33 23 33 27 19 14 13 9 8 7 8 10 10 6 3 360 1 3 358 359 358 346 345 354 348 342 347 352 349 345 339 333 337 328 312 305 283 264 254 248 236 223 217
47 52 52 39 25 17 10 8 7 9 11 11 8 6 3 1 4 4 1 6 7 352 358 0 357 2 1 353 346 346 341 350 353 347 332 322 290 257 251 241 221 219 220
54 77 59 38 21 15 14 7 6 10 12 8 8 7 5 4 6 7 4 11 11 2 3 358 358 4 358 354 350 351 344 353 355 356 355 347 331 302 249 223 215 218 220
80 86 59 37 22 12 16 12 10 10 9 8 7 9 7 6 9 10 7 14 16 10 5 4 7 5 1 1 356 1 1 355 355 355 8 8 350 304 270 243 231 230 229
104 93 65 46 36 22 21 16 11 10 7 9 8 10 10 8 10 13 12 15 17 17 8 7 15 9 10 15 16 14 12 12 6 5 8 8 9 353 290 250 241 239 238
127 98 74 54 41 35 24 17 12 10 8 9 10 11 12 11 11 12 14 16 19 21 12 11 13 15 14 19 20 15 16 9 8 5 4 5 5 356 342 322 285 253 237
138 103 85 64 45 35 27 20 13 9 8 9 11 13 14 14 13 13 14 16 18 23 24 22 17 14 17 17 16 13 14 12 9 1 353 347 344 342 334 316 296 274 256
157 120 89 69 50 38 27 23 18 12 9 9 11 14 15 16 14 16 15 16 19 23 28 26 26 26 19 14 13 11 14 7 360 352 349 346 342 331 317 304 294 279 260
165 129 100 73 48 37 25 17 18 13 11 8 10 15 16 19 15 18 16 16 18 23 27 24 21 27 27 25 15 15 10 8 4 1 0 360 349 337 323 310 287 263 252
170 140 109 76 43 28 25 13 13 16 14 10 8 15 16 19 17 17 18 17 17 22 25 26 24 20 23 26 25 26 14 11 14 11 6 2 2 359 349 328 308 246 234
177 151 122 86 35 16 15 8 13 18 19 16 10 13 15 18 20 17 18 18 16 19 23 25 26 24 20 23 25 27 23 26 19 23 24 16 18 12 21 36 41 20 152
178 157 135 106 12 2 4 359 14 18 19 17 15 14 15 16 19 18 17 18 16 15 21 23 25 27 23 20 25 31 28 25 22 21 14 16 23 32 50 39 354 49 106
180 160 158 170 333 339 345 357 20 14 14 11 13 16 14 15 17 18 17 18 16 16 19 21 24 27 27 22 22 30 29 28 27 29 26 25 28 29 32 20 61 67 31